UAE385 VTBS-OMDB

Flight info

Callsign UAE385
Flight time 6h 11m
Altitude 36000
Route PASTO1E PASTO L301 DOGEM/N0485F380 L301 RAGMA DCT VUSET A454 PASOV B540 MIVEK P574 IMPED
Aircraft A388/J-SADE2E3FGHIJ3J4J5M1RWXY/LB1D1

Departure

Time 2026-04-26 14:38
Airport Suvarnabhumi Airport (VTBS)

Arrival

Time 2026-04-26 20:49
Airport Dubai International Airport (OMDB)
Time Latitude Longitude Altitude Speed Heading
2026-04-26 13:58 13.68929 100.74518 18 ft 0 kts 104°
2026-04-26 13:59 13.68929 100.74514 18 ft 0 kts 104°
2026-04-26 14:18 13.68930 100.74513 18 ft 2 kts 104°
2026-04-26 14:18 13.68937 100.74489 23 ft 4 kts 115°
2026-04-26 14:19 13.68940 100.74483 22 ft 4 kts 119°
2026-04-26 14:19 13.68956 100.74460 23 ft 4 kts 139°
2026-04-26 14:19 13.68978 100.74447 23 ft 4 kts 176°
2026-04-26 14:19 13.68989 100.74448 23 ft 2 kts 194°
2026-04-26 14:28 13.68987 100.74447 18 ft 1 kts 194°
2026-04-26 14:29 13.68946 100.74437 21 ft 8 kts 194°
2026-04-26 14:29 13.68904 100.74426 18 ft 0 kts 194°
2026-04-26 14:32 13.68889 100.74422 22 ft 11 kts 194°
2026-04-26 14:32 13.68808 100.74389 18 ft 13 kts 234°
2026-04-26 14:33 13.68801 100.74284 21 ft 18 kts 282°
2026-04-26 14:33 13.68828 100.74170 19 ft 15 kts 290°
2026-04-26 14:33 13.68905 100.74130 22 ft 15 kts
2026-04-26 14:33 13.69021 100.74157 21 ft 19 kts 14°
2026-04-26 14:34 13.69109 100.74180 20 ft 21 kts 14°
2026-04-26 14:34 13.69255 100.74218 21 ft 23 kts 14°
2026-04-26 14:34 13.69413 100.74259 18 ft 24 kts 14°
2026-04-26 14:34 13.69579 100.74303 18 ft 25 kts 14°
2026-04-26 14:35 13.69753 100.74348 18 ft 26 kts 14°
2026-04-26 14:35 13.69797 100.74360 18 ft 26 kts 14°
2026-04-26 14:35 13.69937 100.74396 19 ft 27 kts 14°
2026-04-26 14:35 13.70118 100.74444 19 ft 27 kts 14°
2026-04-26 14:36 13.70224 100.74471 22 ft 2 kts 14°
2026-04-26 14:36 13.70277 100.74479 20 ft 11 kts 352°
2026-04-26 14:36 13.70334 100.74430 21 ft 12 kts 290°
2026-04-26 14:36 13.70336 100.74343 22 ft 12 kts 248°
2026-04-26 14:37 13.70270 100.74292 21 ft 21 kts 196°
2026-04-26 14:37 13.69874 100.74189 18 ft 95 kts 194°
2026-04-26 14:37 13.69042 100.73972 21 ft 147 kts 194°
2026-04-26 14:37 13.67960 100.73688 205 ft 167 kts 193°
2026-04-26 14:38 13.66824 100.73395 683 ft 169 kts 193°
2026-04-26 14:38 13.65688 100.73091 1154 ft 169 kts 193°
2026-04-26 14:38 13.64546 100.72779 1613 ft 170 kts 193°
2026-04-26 14:38 13.63362 100.72459 1818 ft 184 kts 192°
2026-04-26 14:39 13.62068 100.72116 1964 ft 199 kts 193°
2026-04-26 14:39 13.60680 100.71751 2061 ft 217 kts 193°
2026-04-26 14:39 13.59145 100.71350 2312 ft 239 kts 193°
2026-04-26 14:39 13.58385 100.71152 2423 ft 249 kts 193°
2026-04-26 14:40 13.56669 100.70702 3018 ft 257 kts 193°
2026-04-26 14:40 13.54979 100.70066 3648 ft 263 kts 212°
2026-04-26 14:40 13.53693 100.68725 4314 ft 268 kts 239°
2026-04-26 14:40 13.53136 100.66903 5002 ft 272 kts 266°
2026-04-26 14:41 13.53395 100.64976 5672 ft 275 kts 283°
2026-04-26 14:41 13.53938 100.63076 6332 ft 279 kts 285°
2026-04-26 14:41 13.54502 100.61162 6974 ft 281 kts 285°
2026-04-26 14:41 13.55215 100.59288 7566 ft 285 kts 302°
2026-04-26 14:42 13.56613 100.57845 8209 ft 289 kts 327°
2026-04-26 14:42 13.58500 100.57140 8847 ft 293 kts 353°
2026-04-26 14:42 13.60543 100.57125 9478 ft 295 kts
2026-04-26 14:42 13.62603 100.57255 10101 ft 297 kts
2026-04-26 14:43 13.64713 100.57393 10361 ft 314 kts
2026-04-26 14:43 13.66925 100.57507 10509 ft 331 kts
2026-04-26 14:43 13.69279 100.57596 10683 ft 346 kts
2026-04-26 14:43 13.71704 100.57670 11147 ft 351 kts
2026-04-26 14:44 13.74153 100.57738 11693 ft 353 kts
2026-04-26 14:44 13.76611 100.57651 12194 ft 355 kts 350°
2026-04-26 14:44 13.78993 100.56958 12767 ft 358 kts 336°
2026-04-26 14:44 13.81170 100.55720 13310 ft 360 kts 327°
2026-04-26 14:45 13.83295 100.54315 13809 ft 364 kts 327°
2026-04-26 14:45 13.84739 100.53374 14132 ft 365 kts 328°
2026-04-26 14:45 13.87611 100.51536 14788 ft 368 kts 328°
2026-04-26 14:45 13.89796 100.50154 15295 ft 370 kts 329°
2026-04-26 14:46 13.91954 100.48702 15767 ft 372 kts 320°
2026-04-26 14:46 13.93672 100.46711 16279 ft 375 kts 302°
2026-04-26 14:46 13.94716 100.44245 16701 ft 380 kts 284°
2026-04-26 14:46 13.95160 100.41551 17125 ft 384 kts 278°
2026-04-26 14:47 13.95488 100.38812 17593 ft 386 kts 278°
2026-04-26 14:47 13.95813 100.36060 18020 ft 389 kts 278°
2026-04-26 14:47 13.96163 100.33291 18435 ft 391 kts 278°
2026-04-26 14:47 13.96537 100.30509 18814 ft 393 kts 279°
2026-04-26 14:48 13.96925 100.27715 19187 ft 395 kts 279°
2026-04-26 14:48 13.97319 100.24905 19574 ft 397 kts 278°
2026-04-26 14:48 13.97544 100.22063 19949 ft 400 kts 273°
2026-04-26 14:48 13.97655 100.19200 20335 ft 401 kts 273°
2026-04-26 14:49 13.97761 100.16329 20725 ft 402 kts 273°
2026-04-26 14:49 13.97866 100.13440 21047 ft 405 kts 273°
2026-04-26 14:49 13.97971 100.10528 21397 ft 408 kts 273°
2026-04-26 14:49 13.98077 100.07603 21754 ft 410 kts 273°
2026-04-26 14:50 13.98182 100.04666 22099 ft 412 kts 273°
2026-04-26 14:50 13.98288 100.01746 22428 ft 414 kts 273°
2026-04-26 14:50 13.98396 99.98734 22769 ft 417 kts 273°
2026-04-26 14:50 13.98502 99.95784 23103 ft 419 kts 273°
2026-04-26 14:51 13.98611 99.92738 23448 ft 421 kts 273°
2026-04-26 14:51 13.98716 99.89758 23733 ft 423 kts 273°
2026-04-26 14:51 13.98823 99.86732 24049 ft 424 kts 274°
2026-04-26 14:51 13.98930 99.83698 24354 ft 425 kts 274°
2026-04-26 14:52 13.99037 99.80659 24677 ft 425 kts 274°
2026-04-26 14:52 13.99143 99.77611 24970 ft 426 kts 274°
2026-04-26 14:52 13.99250 99.74557 25265 ft 428 kts 274°
2026-04-26 14:52 13.99356 99.71496 25567 ft 429 kts 274°
2026-04-26 14:53 13.99462 99.68423 25704 ft 430 kts 274°
2026-04-26 14:53 13.99568 99.65335 26173 ft 432 kts 274°
2026-04-26 14:53 13.99674 99.62244 26482 ft 433 kts 274°
2026-04-26 14:53 13.99780 99.59138 26799 ft 434 kts 274°
2026-04-26 14:54 13.99886 99.56024 27114 ft 436 kts 274°
2026-04-26 14:54 13.99992 99.52906 27452 ft 437 kts 274°
2026-04-26 14:54 14.00116 99.49769 27778 ft 438 kts 276°
2026-04-26 14:54 14.00413 99.46646 28121 ft 439 kts 278°
2026-04-26 14:55 14.00732 99.43512 28434 ft 442 kts 278°
2026-04-26 14:55 14.01049 99.40358 28798 ft 443 kts 278°
2026-04-26 14:55 14.01362 99.37190 29183 ft 445 kts 278°
2026-04-26 14:55 14.01669 99.34016 29569 ft 447 kts 278°
2026-04-26 14:56 14.01975 99.30824 29934 ft 449 kts 278°
2026-04-26 14:56 14.02281 99.27610 30291 ft 451 kts 278°
2026-04-26 14:56 14.02587 99.24388 30627 ft 453 kts 277°
2026-04-26 14:56 14.02895 99.21152 30981 ft 455 kts 277°
2026-04-26 14:57 14.03204 99.17900 31315 ft 457 kts 277°
2026-04-26 14:57 14.03515 99.14632 31652 ft 460 kts 277°
2026-04-26 14:57 14.03826 99.11349 31988 ft 462 kts 277°
2026-04-26 14:57 14.04139 99.08053 32318 ft 464 kts 277°
2026-04-26 14:58 14.04453 99.04732 32592 ft 467 kts 277°
2026-04-26 14:58 14.04768 99.01400 32951 ft 469 kts 277°
2026-04-26 14:58 14.05084 98.98048 33277 ft 471 kts 277°
2026-04-26 14:58 14.05383 98.94686 33615 ft 473 kts 276°
2026-04-26 14:59 14.05618 98.91293 33902 ft 477 kts 275°
2026-04-26 14:59 14.05824 98.87923 34211 ft 478 kts 275°
2026-04-26 14:59 14.06033 98.84451 34487 ft 481 kts 274°
2026-04-26 14:59 14.06173 98.82171 34671 ft 482 kts 274°
2026-04-26 15:00 14.06461 98.77609 35167 ft 482 kts 274°
2026-04-26 15:00 14.06682 98.74172 35575 ft 481 kts 274°
2026-04-26 15:00 14.06904 98.70735 35873 ft 482 kts 274°
2026-04-26 15:01 14.07349 98.63855 35927 ft 483 kts 274°
2026-04-26 15:01 14.07792 98.56954 35923 ft 483 kts 274°
2026-04-26 15:02 14.08233 98.50052 35920 ft 483 kts 274°
2026-04-26 15:02 14.08670 98.43153 35908 ft 483 kts 274°
2026-04-26 15:03 14.09106 98.36248 35910 ft 483 kts 274°
2026-04-26 15:03 14.09539 98.29349 35903 ft 483 kts 274°
2026-04-26 15:04 14.09991 98.22456 35899 ft 482 kts 276°
2026-04-26 15:04 14.11260 98.15693 35882 ft 481 kts 284°
2026-04-26 15:05 14.12960 98.09019 35883 ft 481 kts 284°
2026-04-26 15:05 14.14647 98.02344 35877 ft 481 kts 284°
2026-04-26 15:06 14.16324 97.95664 35877 ft 482 kts 284°
2026-04-26 15:06 14.17997 97.88981 35879 ft 482 kts 284°
2026-04-26 15:07 14.20503 97.78948 35875 ft 482 kts 284°
2026-04-26 15:07 14.22172 97.72256 35884 ft 482 kts 284°
2026-04-26 15:08 14.23840 97.65555 35881 ft 483 kts 284°
2026-04-26 15:08 14.25506 97.58856 35882 ft 482 kts 284°
2026-04-26 15:09 14.27159 97.52202 35889 ft 482 kts 284°
2026-04-26 15:09 14.28822 97.45500 35883 ft 482 kts 284°
2026-04-26 15:10 14.30212 97.39890 35875 ft 482 kts 284°
2026-04-26 15:10 14.32138 97.32105 35880 ft 482 kts 284°
2026-04-26 15:11 14.33794 97.25405 35867 ft 482 kts 284°
2026-04-26 15:11 14.35446 97.18709 35870 ft 482 kts 284°
2026-04-26 15:12 14.37098 97.12008 35873 ft 482 kts 284°
2026-04-26 15:12 14.38746 97.05311 35879 ft 482 kts 284°
2026-04-26 15:13 14.40394 96.98611 35871 ft 482 kts 284°
2026-04-26 15:13 14.42039 96.91907 35868 ft 482 kts 284°
2026-04-26 15:14 14.43683 96.85204 35867 ft 482 kts 284°
2026-04-26 15:14 14.45324 96.78502 35878 ft 482 kts 284°
2026-04-26 15:15 14.46966 96.71793 35870 ft 482 kts 284°
2026-04-26 15:15 14.48593 96.65130 35887 ft 482 kts 284°
2026-04-26 15:16 14.50228 96.58427 35889 ft 481 kts 284°
2026-04-26 15:16 14.51859 96.51732 35874 ft 481 kts 284°
2026-04-26 15:17 14.53225 96.46120 35873 ft 481 kts 283°
2026-04-26 15:17 14.55115 96.38346 35873 ft 480 kts 283°
2026-04-26 15:18 14.56738 96.31658 35873 ft 480 kts 283°
2026-04-26 15:18 14.58359 96.24967 35867 ft 480 kts 283°
2026-04-26 15:19 14.59977 96.18281 35875 ft 480 kts 283°
2026-04-26 15:19 14.61594 96.11592 35875 ft 480 kts 283°
2026-04-26 15:20 14.63210 96.04900 35873 ft 480 kts 283°
2026-04-26 15:20 14.64824 95.98205 35871 ft 480 kts 283°
2026-04-26 15:21 14.66434 95.91518 35877 ft 480 kts 283°
2026-04-26 15:21 14.67772 95.85952 35881 ft 480 kts 283°
2026-04-26 15:22 14.69379 95.79260 35880 ft 480 kts 283°
2026-04-26 15:22 14.70984 95.72567 35877 ft 480 kts 283°
2026-04-26 15:23 14.72587 95.65881 35875 ft 480 kts 283°
2026-04-26 15:23 14.74188 95.59189 35882 ft 479 kts 283°
2026-04-26 15:24 14.75784 95.52505 35877 ft 479 kts 283°
2026-04-26 15:24 14.77379 95.45817 35874 ft 479 kts 283°
2026-04-26 15:25 14.78973 95.39129 35877 ft 479 kts 283°
2026-04-26 15:25 14.80563 95.32444 35876 ft 479 kts 283°
2026-04-26 15:26 14.82152 95.25756 35884 ft 479 kts 283°
2026-04-26 15:26 14.83737 95.19077 35882 ft 479 kts 283°
2026-04-26 15:27 14.85319 95.12398 35881 ft 478 kts 283°
2026-04-26 15:27 14.86888 95.05769 35878 ft 478 kts 283°
2026-04-26 15:28 14.88464 94.99095 35880 ft 478 kts 283°
2026-04-26 15:28 14.90038 94.92428 35900 ft 476 kts 282°
2026-04-26 15:29 14.91604 94.85785 35883 ft 475 kts 282°
2026-04-26 15:30 14.94721 94.72531 35881 ft 473 kts 282°
2026-04-26 15:30 14.96273 94.65915 35872 ft 473 kts 282°
2026-04-26 15:31 14.98597 94.55995 35869 ft 473 kts 282°
2026-04-26 15:32 15.00655 94.47190 35878 ft 473 kts 282°
2026-04-26 15:32 15.02459 94.39460 35875 ft 473 kts 282°
2026-04-26 15:33 15.04001 94.32843 35880 ft 473 kts 282°
2026-04-26 15:33 15.05541 94.26225 35878 ft 473 kts 282°
2026-04-26 15:34 15.07080 94.19601 35876 ft 473 kts 282°
2026-04-26 15:34 15.08618 94.12977 35883 ft 473 kts 282°
2026-04-26 15:35 15.10154 94.06348 35886 ft 473 kts 282°
2026-04-26 15:35 15.11687 93.99726 35876 ft 473 kts 282°
2026-04-26 15:36 15.13219 93.93094 35886 ft 473 kts 282°
2026-04-26 15:36 15.14748 93.86471 35880 ft 473 kts 282°
2026-04-26 15:37 15.16276 93.79840 35870 ft 473 kts 282°
2026-04-26 15:37 15.17792 93.73252 35872 ft 474 kts 282°
2026-04-26 15:38 15.19326 93.66577 35877 ft 474 kts 282°
2026-04-26 15:38 15.20851 93.59931 35877 ft 474 kts 282°
2026-04-26 15:39 15.22373 93.53291 35878 ft 474 kts 282°
2026-04-26 15:39 15.23638 93.47764 35877 ft 474 kts 282°
2026-04-26 15:40 15.25413 93.39995 35883 ft 474 kts 282°
2026-04-26 15:40 15.26921 93.33385 35875 ft 474 kts 282°
2026-04-26 15:41 15.28436 93.26737 35881 ft 474 kts 282°
2026-04-26 15:41 15.29947 93.20094 35875 ft 474 kts 282°
2026-04-26 15:42 15.31457 93.13446 35882 ft 474 kts 282°
2026-04-26 15:42 15.32965 93.06801 35877 ft 474 kts 282°
2026-04-26 15:43 15.34470 93.00155 35881 ft 474 kts 282°
2026-04-26 15:44 15.36726 92.90180 35871 ft 474 kts 282°
2026-04-26 15:44 15.38978 92.80201 35882 ft 474 kts 282°
2026-04-26 15:45 15.41228 92.70224 35878 ft 474 kts 282°
2026-04-26 15:46 15.43493 92.60233 35877 ft 475 kts 283°
2026-04-26 15:46 15.44855 92.54724 35887 ft 475 kts 283°
2026-04-26 15:47 15.47614 92.43671 35875 ft 475 kts 283°
2026-04-26 15:48 15.49250 92.37042 35878 ft 474 kts 283°
2026-04-26 15:48 15.50881 92.30417 35876 ft 474 kts 283°
2026-04-26 15:49 15.52511 92.23785 35871 ft 475 kts 283°
2026-04-26 15:49 15.54139 92.17152 35881 ft 475 kts 283°
2026-04-26 15:50 15.55767 92.10513 35876 ft 475 kts 283°
2026-04-26 15:50 15.57381 92.03919 35888 ft 475 kts 283°
2026-04-26 15:51 15.59002 91.97277 35889 ft 475 kts 283°
2026-04-26 15:51 15.60601 91.90636 35889 ft 475 kts 283°
2026-04-26 15:52 15.62201 91.83977 35879 ft 475 kts 283°
2026-04-26 15:52 15.63800 91.77322 35897 ft 475 kts 283°
2026-04-26 15:53 15.65397 91.70671 35886 ft 475 kts 283°
2026-04-26 15:53 15.66990 91.64025 35887 ft 475 kts 283°
2026-04-26 15:54 15.68582 91.57375 35883 ft 474 kts 283°
2026-04-26 15:54 15.70169 91.50731 35875 ft 474 kts 282°
2026-04-26 15:55 15.71755 91.44087 35883 ft 474 kts 282°
2026-04-26 15:55 15.73337 91.37447 35875 ft 474 kts 282°
2026-04-26 15:56 15.74917 91.30807 35877 ft 474 kts 282°
2026-04-26 15:56 15.76496 91.24164 35874 ft 474 kts 282°
2026-04-26 15:57 15.78071 91.17523 35879 ft 474 kts 282°
2026-04-26 15:57 15.79646 91.10878 35883 ft 474 kts 282°
2026-04-26 15:58 15.81221 91.04222 35883 ft 474 kts 282°
2026-04-26 15:58 15.82791 90.97574 35887 ft 475 kts 282°
2026-04-26 15:59 15.84364 90.90909 35886 ft 475 kts 282°
2026-04-26 15:59 15.85932 90.84250 35884 ft 475 kts 282°
2026-04-26 16:00 15.87499 90.77588 35896 ft 475 kts 282°
2026-04-26 16:00 15.89065 90.70919 35888 ft 475 kts 282°
2026-04-26 16:01 15.90619 90.64293 35879 ft 476 kts 282°
2026-04-26 16:01 15.92193 90.57571 35886 ft 476 kts 282°
2026-04-26 16:02 15.93756 90.50888 35883 ft 476 kts 282°
2026-04-26 16:02 15.95317 90.44203 35892 ft 476 kts 282°
2026-04-26 16:03 15.96865 90.37559 35880 ft 476 kts 282°
2026-04-26 16:03 15.98423 90.30868 35882 ft 476 kts 282°
2026-04-26 16:04 15.99976 90.24183 35911 ft 476 kts 282°
2026-04-26 16:04 16.01527 90.17504 35902 ft 475 kts 282°
2026-04-26 16:05 16.03104 90.10851 35891 ft 474 kts 283°
2026-04-26 16:05 16.04714 90.04214 35881 ft 473 kts 283°
2026-04-26 16:06 16.06313 89.97592 35868 ft 472 kts 283°
2026-04-26 16:06 16.07904 89.90969 35873 ft 472 kts 283°
2026-04-26 16:07 16.09494 89.84344 35872 ft 472 kts 283°
2026-04-26 16:07 16.11082 89.77714 35879 ft 472 kts 283°
2026-04-26 16:08 16.12668 89.71082 35878 ft 473 kts 282°
2026-04-26 16:08 16.14254 89.64444 35878 ft 473 kts 282°
2026-04-26 16:09 16.15840 89.57795 35883 ft 474 kts 282°
2026-04-26 16:09 16.17425 89.51144 35886 ft 474 kts 282°
2026-04-26 16:10 16.19007 89.44490 35882 ft 474 kts 282°
2026-04-26 16:10 16.20588 89.37833 35895 ft 474 kts 282°
2026-04-26 16:11 16.21901 89.32299 35880 ft 474 kts 282°
2026-04-26 16:11 16.23477 89.25643 35891 ft 474 kts 282°
2026-04-26 16:12 16.25307 89.17906 35883 ft 474 kts 282°
2026-04-26 16:12 16.27410 89.09000 35877 ft 474 kts 282°
2026-04-26 16:13 16.29010 89.02356 35884 ft 474 kts 283°
2026-04-26 16:13 16.30638 88.95704 35879 ft 474 kts 283°
2026-04-26 16:14 16.32246 88.89107 35884 ft 474 kts 283°
2026-04-26 16:15 16.34667 88.79133 35892 ft 474 kts 282°
2026-04-26 16:15 16.36276 88.72489 35903 ft 473 kts 282°
2026-04-26 16:16 16.38679 88.62549 35887 ft 472 kts 282°
2026-04-26 16:16 16.40277 88.55926 35878 ft 471 kts 282°
2026-04-26 16:17 16.41869 88.49318 35874 ft 471 kts 282°
2026-04-26 16:17 16.43460 88.42706 35879 ft 470 kts 282°
2026-04-26 16:18 16.45840 88.32794 35875 ft 470 kts 282°
2026-04-26 16:19 16.48205 88.22925 35870 ft 470 kts 282°
2026-04-26 16:20 16.50577 88.13002 35875 ft 471 kts 282°
2026-04-26 16:20 16.52946 88.03068 35882 ft 471 kts 282°
2026-04-26 16:21 16.54521 87.96454 35883 ft 471 kts 282°
2026-04-26 16:21 16.56095 87.89831 35877 ft 470 kts 282°
2026-04-26 16:22 16.57666 87.83212 35872 ft 470 kts 282°
2026-04-26 16:22 16.59236 87.76591 35878 ft 470 kts 282°
2026-04-26 16:23 16.60802 87.69973 35873 ft 470 kts 282°
2026-04-26 16:23 16.62365 87.63360 35878 ft 470 kts 282°
2026-04-26 16:24 16.63926 87.56747 35873 ft 470 kts 282°
2026-04-26 16:24 16.65484 87.50135 35875 ft 469 kts 282°
2026-04-26 16:25 16.67037 87.43531 35871 ft 469 kts 282°
2026-04-26 16:25 16.68590 87.36921 35885 ft 469 kts 282°
2026-04-26 16:26 16.70129 87.30367 35888 ft 468 kts 282°
2026-04-26 16:26 16.71672 87.23784 35879 ft 467 kts 282°
2026-04-26 16:27 16.73209 87.17213 35877 ft 466 kts 282°
2026-04-26 16:27 16.74753 87.10649 35866 ft 465 kts 282°
2026-04-26 16:28 16.76316 87.04099 35858 ft 465 kts 282°
2026-04-26 16:28 16.77877 86.97554 35858 ft 465 kts 282°
2026-04-26 16:29 16.79433 86.91007 35866 ft 465 kts 282°
2026-04-26 16:29 16.80984 86.84464 35865 ft 465 kts 282°
2026-04-26 16:30 16.82534 86.77918 35865 ft 464 kts 282°
2026-04-26 16:30 16.84082 86.71373 35864 ft 464 kts 282°
2026-04-26 16:31 16.85627 86.64827 35862 ft 465 kts 282°
2026-04-26 16:31 16.87171 86.58276 35860 ft 465 kts 282°
2026-04-26 16:32 16.88453 86.52829 35866 ft 465 kts 282°
2026-04-26 16:32 16.90253 86.45174 35859 ft 465 kts 282°
2026-04-26 16:33 16.91789 86.38626 35860 ft 464 kts 282°
2026-04-26 16:33 16.93314 86.32117 35858 ft 464 kts 282°
2026-04-26 16:34 16.94848 86.25564 35859 ft 464 kts 282°
2026-04-26 16:34 16.96378 86.19011 35858 ft 464 kts 282°
2026-04-26 16:35 16.97907 86.12461 35857 ft 464 kts 281°
2026-04-26 16:35 16.99435 86.05902 35857 ft 464 kts 281°
2026-04-26 16:36 17.00959 85.99347 35855 ft 464 kts 281°
2026-04-26 16:36 17.02479 85.92800 35871 ft 464 kts 281°
2026-04-26 16:37 17.03997 85.86252 35860 ft 463 kts 281°
2026-04-26 16:37 17.05509 85.79716 35854 ft 462 kts 281°
2026-04-26 16:38 17.07018 85.73186 35849 ft 462 kts 281°
2026-04-26 16:38 17.08524 85.66658 35845 ft 462 kts 281°
2026-04-26 16:39 17.10031 85.60115 36061 ft 465 kts 281°
2026-04-26 16:39 17.10785 85.56841 36582 ft 461 kts 281°
2026-04-26 16:39 17.11522 85.53638 37138 ft 458 kts 281°
2026-04-26 16:40 17.12262 85.50417 37646 ft 455 kts 281°
2026-04-26 16:40 17.13002 85.47192 37840 ft 457 kts 281°
2026-04-26 16:40 17.14461 85.40833 37847 ft 448 kts 281°
2026-04-26 16:41 17.15915 85.34479 37849 ft 450 kts 281°
2026-04-26 16:41 17.17376 85.28115 37850 ft 450 kts 282°
2026-04-26 16:42 17.18891 85.21763 37849 ft 450 kts 282°
2026-04-26 16:42 17.20411 85.15415 37847 ft 450 kts 282°
2026-04-26 16:43 17.21921 85.09070 37846 ft 450 kts 282°
2026-04-26 16:43 17.23430 85.02716 37848 ft 450 kts 282°
2026-04-26 16:44 17.24936 84.96363 37849 ft 450 kts 281°
2026-04-26 16:44 17.26437 84.90016 37847 ft 450 kts 281°
2026-04-26 16:45 17.27938 84.83663 37844 ft 450 kts 281°
2026-04-26 16:45 17.29435 84.77316 37843 ft 449 kts 281°
2026-04-26 16:46 17.30930 84.70964 37845 ft 449 kts 281°
2026-04-26 16:46 17.32423 84.64615 37843 ft 449 kts 281°
2026-04-26 16:47 17.33915 84.58263 37851 ft 449 kts 281°
2026-04-26 16:47 17.35392 84.51965 37846 ft 448 kts 281°
2026-04-26 16:48 17.36899 84.45642 37840 ft 448 kts 282°
2026-04-26 16:48 17.38462 84.39328 37839 ft 448 kts 282°
2026-04-26 16:49 17.40019 84.33021 37837 ft 447 kts 282°
2026-04-26 16:49 17.41568 84.26710 37840 ft 447 kts 282°
2026-04-26 16:50 17.43109 84.20415 37838 ft 448 kts 282°
2026-04-26 16:50 17.44656 84.14086 37840 ft 448 kts 282°
2026-04-26 16:51 17.46197 84.07769 37839 ft 448 kts 282°
2026-04-26 16:51 17.47738 84.01445 37840 ft 448 kts 282°
2026-04-26 16:52 17.48767 83.97219 37842 ft 448 kts 282°
2026-04-26 16:52 17.50828 83.88800 37833 ft 448 kts 282°
2026-04-26 16:53 17.52439 83.82489 37834 ft 449 kts 282°
2026-04-26 16:53 17.54054 83.76172 37834 ft 449 kts 282°
2026-04-26 16:54 17.55658 83.69858 37828 ft 449 kts 282°
2026-04-26 16:54 17.57257 83.63542 37826 ft 448 kts 282°
2026-04-26 16:55 17.58855 83.57224 37824 ft 448 kts 282°
2026-04-26 16:55 17.60450 83.50909 37826 ft 448 kts 282°
2026-04-26 16:56 17.62838 83.41435 37825 ft 448 kts 282°
2026-04-26 16:57 17.64425 83.35124 37834 ft 448 kts 282°
2026-04-26 16:57 17.66813 83.25638 37831 ft 448 kts 283°
2026-04-26 16:58 17.68085 83.21509 37826 ft 450 kts 285°
2026-04-26 16:59 17.71764 83.10137 37836 ft 450 kts 285°
2026-04-26 17:00 17.75774 82.97713 37839 ft 449 kts 285°
2026-04-26 17:00 17.78772 82.88400 37851 ft 449 kts 285°
2026-04-26 17:01 17.80771 82.82182 37860 ft 449 kts 285°
2026-04-26 17:01 17.82765 82.75972 37863 ft 449 kts 285°
2026-04-26 17:02 17.84760 82.69754 37880 ft 449 kts 285°
2026-04-26 17:02 17.86751 82.63539 37880 ft 449 kts 285°
2026-04-26 17:03 17.88402 82.58377 37892 ft 449 kts 285°
2026-04-26 17:03 17.90386 82.52171 37903 ft 448 kts 285°
2026-04-26 17:04 17.92368 82.45961 37889 ft 449 kts 285°
2026-04-26 17:04 17.94349 82.39745 37895 ft 449 kts 284°
2026-04-26 17:05 17.96333 82.33518 37857 ft 450 kts 284°
2026-04-26 17:05 17.98318 82.27279 37862 ft 451 kts 284°
2026-04-26 17:06 18.00304 82.21028 37868 ft 452 kts 284°
2026-04-26 17:06 18.02293 82.14758 37874 ft 453 kts 284°
2026-04-26 17:07 18.04281 82.08483 37871 ft 453 kts 284°
2026-04-26 17:07 18.06269 82.02205 37861 ft 453 kts 284°
2026-04-26 17:08 18.08273 81.95935 37854 ft 453 kts 285°
2026-04-26 17:08 18.10320 81.89715 37838 ft 453 kts 285°
2026-04-26 17:09 18.12044 81.84477 37831 ft 452 kts 285°
2026-04-26 17:09 18.14421 81.77218 37813 ft 452 kts 285°
2026-04-26 17:10 18.16460 81.70973 37794 ft 452 kts 285°
2026-04-26 17:10 18.18499 81.64719 37803 ft 452 kts 285°
2026-04-26 17:11 18.20536 81.58464 37783 ft 452 kts 285°
2026-04-26 17:11 18.22574 81.52199 37784 ft 453 kts 285°
2026-04-26 17:12 18.25632 81.42783 37801 ft 454 kts 285°
2026-04-26 17:13 18.28691 81.33346 37816 ft 455 kts 285°
2026-04-26 17:14 18.31758 81.23871 37832 ft 456 kts 285°
2026-04-26 17:14 18.34817 81.14401 37812 ft 455 kts 285°
2026-04-26 17:15 18.37866 81.04946 37817 ft 454 kts 285°
2026-04-26 17:16 18.39894 80.98648 37805 ft 454 kts 285°
2026-04-26 17:16 18.41904 80.92398 37800 ft 453 kts 285°
2026-04-26 17:17 18.43923 80.86112 37789 ft 453 kts 285°
2026-04-26 17:17 18.45941 80.79823 37789 ft 453 kts 285°
2026-04-26 17:18 18.47957 80.73528 37784 ft 453 kts 285°
2026-04-26 17:18 18.49972 80.67232 37774 ft 454 kts 285°
2026-04-26 17:19 18.52993 80.57775 37779 ft 454 kts 285°
2026-04-26 17:19 18.54930 80.51442 37780 ft 454 kts 283°
2026-04-26 17:20 18.56500 80.46165 37777 ft 454 kts 283°
2026-04-26 17:20 18.58718 80.38742 37776 ft 454 kts 284°
2026-04-26 17:21 18.60618 80.32402 37769 ft 454 kts 284°
2026-04-26 17:21 18.62518 80.26057 37762 ft 453 kts 283°
2026-04-26 17:22 18.64412 80.19720 37760 ft 453 kts 283°
2026-04-26 17:22 18.66303 80.13390 37757 ft 453 kts 283°
2026-04-26 17:23 18.68192 80.07060 37758 ft 452 kts 283°
2026-04-26 17:23 18.70077 80.00729 37760 ft 452 kts 283°
2026-04-26 17:24 18.71958 79.94403 37754 ft 452 kts 283°
2026-04-26 17:24 18.73835 79.88079 37752 ft 452 kts 283°
2026-04-26 17:25 18.75710 79.81757 37760 ft 452 kts 283°
2026-04-26 17:25 18.77574 79.75465 37766 ft 452 kts 283°
2026-04-26 17:26 18.79446 79.69137 37772 ft 452 kts 283°
2026-04-26 17:26 18.81316 79.62805 37771 ft 452 kts 283°
2026-04-26 17:27 18.83183 79.56473 37800 ft 452 kts 283°
2026-04-26 17:27 18.85047 79.50144 37793 ft 451 kts 283°
2026-04-26 17:28 18.86906 79.43823 37789 ft 450 kts 283°
2026-04-26 17:28 18.88760 79.37512 37794 ft 450 kts 283°
2026-04-26 17:29 18.90297 79.32273 37787 ft 449 kts 283°
2026-04-26 17:29 18.92453 79.24913 37796 ft 449 kts 283°
2026-04-26 17:30 18.94295 79.18613 37796 ft 448 kts 283°
2026-04-26 17:30 18.96133 79.12322 37806 ft 448 kts 283°
2026-04-26 17:31 18.97970 79.06025 37807 ft 449 kts 283°
2026-04-26 17:31 18.99808 78.99717 37805 ft 449 kts 283°
2026-04-26 17:32 19.01642 78.93412 37815 ft 449 kts 283°
2026-04-26 17:32 19.03477 78.87095 37818 ft 450 kts 283°
2026-04-26 17:33 19.05313 78.80766 37830 ft 450 kts 283°
2026-04-26 17:34 19.08050 78.71314 37833 ft 451 kts 283°
2026-04-26 17:34 19.09883 78.64975 37828 ft 451 kts 283°
2026-04-26 17:35 19.11715 78.58627 37842 ft 451 kts 283°
2026-04-26 17:35 19.13544 78.52285 37840 ft 451 kts 283°
2026-04-26 17:36 19.15369 78.45943 37838 ft 451 kts 283°
2026-04-26 17:36 19.17192 78.39602 37841 ft 451 kts 282°
2026-04-26 17:37 19.19012 78.33259 37842 ft 451 kts 282°
2026-04-26 17:37 19.20831 78.26914 37839 ft 450 kts 282°
2026-04-26 17:38 19.23549 78.17418 37833 ft 449 kts 282°
2026-04-26 17:38 19.25295 78.11074 37830 ft 447 kts 279°
2026-04-26 17:39 19.26743 78.04676 37824 ft 447 kts 279°
2026-04-26 17:39 19.28196 77.98287 37827 ft 447 kts 279°
2026-04-26 17:40 19.29168 77.94000 37814 ft 448 kts 279°
2026-04-26 17:40 19.31118 77.85466 37825 ft 449 kts 279°
2026-04-26 17:41 19.32602 77.79037 37827 ft 450 kts 279°
2026-04-26 17:41 19.34082 77.72600 37832 ft 450 kts 279°
2026-04-26 17:42 19.35559 77.66160 37834 ft 450 kts 279°
2026-04-26 17:42 19.37033 77.59717 37834 ft 450 kts 279°
2026-04-26 17:43 19.38504 77.53274 37850 ft 450 kts 279°
2026-04-26 17:43 19.39969 77.46849 37845 ft 448 kts 279°
2026-04-26 17:44 19.41428 77.40438 37836 ft 447 kts 279°
2026-04-26 17:44 19.42883 77.34036 37832 ft 446 kts 279°
2026-04-26 17:45 19.44330 77.27654 37823 ft 446 kts 279°
2026-04-26 17:45 19.45773 77.21267 37827 ft 445 kts 279°
2026-04-26 17:46 19.47204 77.14888 37820 ft 445 kts 279°
2026-04-26 17:46 19.48635 77.08503 37821 ft 445 kts 279°
2026-04-26 17:47 19.49581 77.04276 37824 ft 445 kts 279°
2026-04-26 17:47 19.51492 76.95732 37828 ft 446 kts 279°
2026-04-26 17:48 19.52918 76.89338 37833 ft 446 kts 279°
2026-04-26 17:48 19.54343 76.82942 37837 ft 446 kts 279°
2026-04-26 17:49 19.55787 76.76548 37841 ft 446 kts 279°
2026-04-26 17:49 19.57245 76.70153 37842 ft 446 kts 279°
2026-04-26 17:50 19.58697 76.63761 37842 ft 446 kts 279°
2026-04-26 17:50 19.60135 76.57408 37839 ft 446 kts 279°
2026-04-26 17:51 19.61579 76.51016 37837 ft 446 kts 279°
2026-04-26 17:51 19.63021 76.44624 37855 ft 445 kts 279°
2026-04-26 17:52 19.64226 76.39275 37850 ft 445 kts 279°
2026-04-26 17:52 19.65658 76.32901 37846 ft 444 kts 279°
2026-04-26 17:53 19.67076 76.26580 37840 ft 443 kts 279°
2026-04-26 17:54 19.69211 76.17047 37839 ft 443 kts 279°
2026-04-26 17:54 19.70631 76.10691 37836 ft 443 kts 279°
2026-04-26 17:55 19.72049 76.04334 37840 ft 443 kts 279°
2026-04-26 17:55 19.73465 75.97974 37842 ft 443 kts 279°
2026-04-26 17:56 19.74880 75.91607 37849 ft 443 kts 279°
2026-04-26 17:57 19.77704 75.78861 37856 ft 444 kts 279°
2026-04-26 17:57 19.79116 75.72473 37862 ft 444 kts 279°
2026-04-26 17:58 19.81932 75.59692 37880 ft 445 kts 279°
2026-04-26 17:59 19.84040 75.50099 37889 ft 445 kts 279°
2026-04-26 17:59 19.85442 75.43701 37887 ft 445 kts 279°
2026-04-26 18:00 19.86805 75.37300 37871 ft 444 kts 277°
2026-04-26 18:00 19.87984 75.30860 37869 ft 444 kts 277°
2026-04-26 18:01 19.89154 75.24418 37879 ft 444 kts 277°
2026-04-26 18:01 19.90345 75.17969 37874 ft 445 kts 277°
2026-04-26 18:02 19.91338 75.12610 37877 ft 445 kts 277°
2026-04-26 18:02 19.92732 75.05071 37857 ft 445 kts 277°
2026-04-26 18:03 19.93922 74.98614 37862 ft 446 kts 277°
2026-04-26 18:03 19.95112 74.92145 37865 ft 446 kts 277°
2026-04-26 18:04 19.96302 74.85667 37875 ft 447 kts 277°
2026-04-26 18:05 19.98074 74.75989 37876 ft 447 kts 277°
2026-04-26 18:05 19.99259 74.69503 37877 ft 447 kts 277°
2026-04-26 18:06 20.00443 74.63012 37885 ft 447 kts 277°
2026-04-26 18:06 20.01622 74.56527 37883 ft 447 kts 277°
2026-04-26 18:07 20.02801 74.50034 37878 ft 447 kts 277°
2026-04-26 18:07 20.03975 74.43553 37878 ft 447 kts 277°
2026-04-26 18:08 20.05147 74.37069 37875 ft 446 kts 277°
2026-04-26 18:08 20.06316 74.30583 37871 ft 446 kts 277°
2026-04-26 18:09 20.07483 74.24096 37877 ft 447 kts 277°
2026-04-26 18:09 20.08648 74.17607 37888 ft 447 kts 277°
2026-04-26 18:10 20.09813 74.11104 37887 ft 447 kts 277°
2026-04-26 18:10 20.10976 74.04597 37908 ft 448 kts 277°
2026-04-26 18:11 20.12136 73.98095 37904 ft 448 kts 277°
2026-04-26 18:11 20.13295 73.91584 37902 ft 448 kts 277°
2026-04-26 18:12 20.14453 73.85062 37908 ft 449 kts 277°
2026-04-26 18:12 20.15609 73.78538 37911 ft 449 kts 277°
2026-04-26 18:13 20.16764 73.72005 37910 ft 449 kts 277°
2026-04-26 18:13 20.17918 73.65463 37907 ft 450 kts 277°
2026-04-26 18:14 20.19070 73.58917 37885 ft 450 kts 277°
2026-04-26 18:14 20.20223 73.52354 37883 ft 451 kts 277°
2026-04-26 18:15 20.21372 73.45792 37869 ft 451 kts 277°
2026-04-26 18:15 20.22519 73.39222 37880 ft 451 kts 277°
2026-04-26 18:16 20.23655 73.32704 37865 ft 451 kts 277°
2026-04-26 18:16 20.25387 73.22855 37836 ft 452 kts 277°
2026-04-26 18:17 20.26625 73.16302 37839 ft 452 kts 277°
2026-04-26 18:17 20.27874 73.09720 37842 ft 452 kts 277°
2026-04-26 18:18 20.29109 73.03149 37832 ft 452 kts 277°
2026-04-26 18:18 20.30338 72.96570 37821 ft 453 kts 277°
2026-04-26 18:19 20.31566 72.89982 37803 ft 454 kts 277°
2026-04-26 18:19 20.32796 72.83373 37804 ft 455 kts 277°
2026-04-26 18:20 20.34024 72.76761 37805 ft 456 kts 277°
2026-04-26 18:20 20.35045 72.71252 37809 ft 456 kts 277°
2026-04-26 18:21 20.36478 72.63500 37807 ft 456 kts 277°
2026-04-26 18:21 20.37702 72.56864 37794 ft 457 kts 277°
2026-04-26 18:22 20.38927 72.50209 37791 ft 458 kts 277°
2026-04-26 18:22 20.40150 72.43549 37794 ft 458 kts 277°
2026-04-26 18:23 20.41372 72.36883 37791 ft 458 kts 277°
2026-04-26 18:23 20.42592 72.30213 37793 ft 459 kts 277°
2026-04-26 18:24 20.43808 72.23543 37781 ft 459 kts 277°
2026-04-26 18:24 20.45025 72.16857 37781 ft 459 kts 277°
2026-04-26 18:25 20.46231 72.10210 37786 ft 460 kts 277°
2026-04-26 18:25 20.47443 72.03514 37790 ft 460 kts 277°
2026-04-26 18:26 20.48653 71.96805 37789 ft 460 kts 277°
2026-04-26 18:26 20.49853 71.90105 37788 ft 460 kts 277°
2026-04-26 18:27 20.51056 71.83380 37769 ft 462 kts 277°
2026-04-26 18:27 20.52260 71.76647 37775 ft 463 kts 277°
2026-04-26 18:28 20.53464 71.69895 37799 ft 464 kts 277°
2026-04-26 18:28 20.54667 71.63134 37799 ft 464 kts 277°
2026-04-26 18:29 20.55870 71.56358 37797 ft 465 kts 277°
2026-04-26 18:29 20.57069 71.49578 37784 ft 465 kts 277°
2026-04-26 18:30 20.58268 71.42786 37791 ft 466 kts 277°
2026-04-26 18:30 20.59466 71.35991 37797 ft 466 kts 277°
2026-04-26 18:31 20.60661 71.29192 37797 ft 466 kts 277°
2026-04-26 18:31 20.61853 71.22397 37800 ft 466 kts 277°
2026-04-26 18:32 20.63042 71.15597 37804 ft 466 kts 277°
2026-04-26 18:32 20.64221 71.08846 37807 ft 466 kts 277°
2026-04-26 18:33 20.65404 71.02049 37805 ft 465 kts 277°
2026-04-26 18:33 20.66583 70.95259 37796 ft 465 kts 277°
2026-04-26 18:34 20.67759 70.88469 37797 ft 465 kts 277°
2026-04-26 18:34 20.68933 70.81667 37795 ft 466 kts 277°
2026-04-26 18:35 20.70105 70.74859 37784 ft 467 kts 278°
2026-04-26 18:35 20.71279 70.68019 37794 ft 469 kts 278°
2026-04-26 18:36 20.72457 70.61149 37809 ft 470 kts 278°
2026-04-26 18:36 20.73636 70.54264 37815 ft 472 kts 278°
2026-04-26 18:37 20.74814 70.47357 37815 ft 474 kts 278°
2026-04-26 18:37 20.75995 70.40424 37822 ft 475 kts 278°
2026-04-26 18:38 20.77176 70.33475 37843 ft 475 kts 278°
2026-04-26 18:38 20.78354 70.26523 37839 ft 475 kts 278°
2026-04-26 18:39 20.79529 70.19574 37825 ft 475 kts 278°
2026-04-26 18:39 20.80503 70.13792 37820 ft 475 kts 278°
2026-04-26 18:40 20.81673 70.06838 37814 ft 475 kts 278°
2026-04-26 18:40 20.82839 69.99890 37825 ft 475 kts 278°
2026-04-26 18:41 20.84002 69.92939 37818 ft 475 kts 278°
2026-04-26 18:41 20.85164 69.85985 37820 ft 475 kts 278°
2026-04-26 18:42 20.86322 69.79024 37813 ft 476 kts 278°
2026-04-26 18:42 20.87478 69.72062 37820 ft 476 kts 278°
2026-04-26 18:43 20.88633 69.65092 37825 ft 476 kts 278°
2026-04-26 18:43 20.89785 69.58121 37826 ft 476 kts 278°
2026-04-26 18:44 20.90933 69.51150 37821 ft 476 kts 278°
2026-04-26 18:44 20.92080 69.44169 37822 ft 477 kts 278°
2026-04-26 18:45 20.93225 69.37175 37822 ft 477 kts 278°
2026-04-26 18:45 20.94367 69.30183 37828 ft 478 kts 278°
2026-04-26 18:46 20.95509 69.23180 37832 ft 478 kts 278°
2026-04-26 18:46 20.96648 69.16178 37822 ft 478 kts 278°
2026-04-26 18:47 20.98275 69.09274 37825 ft 480 kts 288°
2026-04-26 18:47 21.00907 69.02688 37827 ft 482 kts 292°
2026-04-26 18:48 21.03670 68.96148 37830 ft 482 kts 292°
2026-04-26 18:48 21.06415 68.89596 37835 ft 482 kts 292°
2026-04-26 18:49 21.09134 68.83076 37829 ft 483 kts 292°
2026-04-26 18:49 21.11886 68.76460 37836 ft 483 kts 292°
2026-04-26 18:50 21.14621 68.69882 37836 ft 483 kts 292°
2026-04-26 18:50 21.17352 68.63306 37833 ft 483 kts 292°
2026-04-26 18:51 21.20082 68.56728 37834 ft 483 kts 292°
2026-04-26 18:51 21.22810 68.50142 37827 ft 483 kts 292°
2026-04-26 18:52 21.25536 68.43553 37836 ft 484 kts 292°
2026-04-26 18:52 21.28261 68.36956 37828 ft 484 kts 292°
2026-04-26 18:53 21.30984 68.30357 37827 ft 484 kts 292°
2026-04-26 18:53 21.33706 68.23751 37829 ft 485 kts 292°
2026-04-26 18:54 21.36428 68.17135 37812 ft 486 kts 293°
2026-04-26 18:54 21.39154 68.10498 37818 ft 486 kts 293°
2026-04-26 18:55 21.41863 68.03896 37823 ft 487 kts 293°
2026-04-26 18:55 21.44593 67.97239 37832 ft 488 kts 293°
2026-04-26 18:56 21.47321 67.90574 37832 ft 488 kts 292°
2026-04-26 18:56 21.50052 67.83895 37840 ft 488 kts 292°
2026-04-26 18:57 21.52317 67.78347 37838 ft 488 kts 292°
2026-04-26 18:57 21.55498 67.70545 37836 ft 488 kts 293°
2026-04-26 18:58 21.58218 67.63861 37833 ft 488 kts 293°
2026-04-26 18:58 21.60932 67.57186 37829 ft 487 kts 293°
2026-04-26 18:59 21.63642 67.50511 37825 ft 487 kts 293°
2026-04-26 18:59 21.66347 67.43838 37826 ft 487 kts 293°
2026-04-26 19:00 21.69049 67.37165 37828 ft 487 kts 293°
2026-04-26 19:00 21.71747 67.30493 37827 ft 487 kts 293°
2026-04-26 19:01 21.74443 67.23817 37826 ft 487 kts 293°
2026-04-26 19:01 21.77137 67.17136 37832 ft 487 kts 293°
2026-04-26 19:02 21.79811 67.10488 37827 ft 487 kts 294°
2026-04-26 19:02 21.82064 67.04884 37832 ft 487 kts 294°
2026-04-26 19:03 21.85190 66.97101 37831 ft 487 kts 294°
2026-04-26 19:03 21.87877 66.90402 37830 ft 487 kts 294°
2026-04-26 19:04 21.90560 66.83697 37831 ft 487 kts 294°
2026-04-26 19:04 21.93239 66.76994 37829 ft 487 kts 294°
2026-04-26 19:05 21.97256 66.66936 37825 ft 487 kts 294°
2026-04-26 19:06 21.99931 66.60224 37835 ft 487 kts 294°
2026-04-26 19:06 22.02602 66.53514 37834 ft 487 kts 294°
2026-04-26 19:07 22.05269 66.46808 37834 ft 486 kts 294°
2026-04-26 19:07 22.07924 66.40111 37833 ft 486 kts 294°
2026-04-26 19:08 22.10581 66.33407 37826 ft 486 kts 294°
2026-04-26 19:08 22.13233 66.26713 37824 ft 485 kts 294°
2026-04-26 19:09 22.15878 66.20021 37838 ft 484 kts 295°
2026-04-26 19:09 22.18514 66.13340 37829 ft 484 kts 295°
2026-04-26 19:10 22.21148 66.06664 37833 ft 483 kts 294°
2026-04-26 19:10 22.23753 66.00047 37836 ft 482 kts 294°
2026-04-26 19:11 22.26371 65.93388 37833 ft 481 kts 294°
2026-04-26 19:11 22.28978 65.86745 37837 ft 480 kts 295°
2026-04-26 19:12 22.31578 65.80111 37826 ft 479 kts 295°
2026-04-26 19:12 22.34171 65.73488 37819 ft 478 kts 295°
2026-04-26 19:13 22.36757 65.66874 37822 ft 478 kts 295°
2026-04-26 19:13 22.39340 65.60256 37811 ft 477 kts 295°
2026-04-26 19:14 22.41912 65.53655 37823 ft 476 kts 295°
2026-04-26 19:14 22.44474 65.47072 37837 ft 475 kts 295°
2026-04-26 19:15 22.47030 65.40496 37832 ft 474 kts 295°
2026-04-26 19:15 22.49581 65.33927 37827 ft 473 kts 295°
2026-04-26 19:16 22.52122 65.27370 37823 ft 472 kts 295°
2026-04-26 19:16 22.54657 65.20818 37815 ft 472 kts 295°
2026-04-26 19:17 22.57188 65.14271 37812 ft 471 kts 295°
2026-04-26 19:17 22.59711 65.07734 37804 ft 471 kts 295°
2026-04-26 19:18 22.62215 65.01239 37801 ft 471 kts 295°
2026-04-26 19:18 22.64746 64.94664 37815 ft 469 kts 295°
2026-04-26 19:19 22.67254 64.88138 37808 ft 469 kts 295°
2026-04-26 19:19 22.69755 64.81620 37807 ft 469 kts 295°
2026-04-26 19:20 22.72251 64.75110 37804 ft 468 kts 295°
2026-04-26 19:20 22.74730 64.68632 37803 ft 468 kts 295°
2026-04-26 19:21 22.77221 64.62117 37800 ft 468 kts 295°
2026-04-26 19:21 22.79710 64.55595 37803 ft 468 kts 295°
2026-04-26 19:22 22.82199 64.49064 37806 ft 469 kts 295°
2026-04-26 19:22 22.84685 64.42533 37810 ft 469 kts 295°
2026-04-26 19:23 22.87173 64.35990 37810 ft 469 kts 295°
2026-04-26 19:23 22.89653 64.29451 37816 ft 468 kts 295°
2026-04-26 19:24 22.92126 64.22922 37813 ft 468 kts 295°
2026-04-26 19:24 22.95828 64.13133 37804 ft 467 kts 295°
2026-04-26 19:25 22.97474 64.08772 37806 ft 467 kts 295°
2026-04-26 19:25 23.00743 64.00100 37803 ft 466 kts 295°
2026-04-26 19:26 23.03192 63.93597 37802 ft 465 kts 295°
2026-04-26 19:26 23.05360 63.86978 37798 ft 467 kts 288°
2026-04-26 19:27 23.06456 63.81214 37796 ft 471 kts 281°
2026-04-26 19:27 23.07171 63.74139 37790 ft 471 kts 279°
2026-04-26 19:28 23.07889 63.67068 37797 ft 471 kts 280°
2026-04-26 19:28 23.08618 63.60002 37795 ft 471 kts 280°
2026-04-26 19:29 23.09347 63.52928 37795 ft 471 kts 280°
2026-04-26 19:29 23.10072 63.45856 37797 ft 471 kts 280°
2026-04-26 19:30 23.10793 63.38786 37809 ft 471 kts 280°
2026-04-26 19:30 23.11389 63.32914 37803 ft 470 kts 280°
2026-04-26 19:31 23.12223 63.24667 37800 ft 470 kts 280°
2026-04-26 19:31 23.12933 63.17614 37791 ft 470 kts 280°
2026-04-26 19:32 23.13639 63.10564 37806 ft 469 kts 280°
2026-04-26 19:32 23.14341 63.03525 37796 ft 469 kts 280°
2026-04-26 19:33 23.15040 62.96484 37803 ft 468 kts 279°
2026-04-26 19:33 23.15736 62.89458 37800 ft 467 kts 279°
2026-04-26 19:34 23.16427 62.82440 37797 ft 467 kts 279°
2026-04-26 19:34 23.17109 62.75482 37792 ft 466 kts 279°
2026-04-26 19:35 23.17796 62.68439 37793 ft 465 kts 279°
2026-04-26 19:35 23.18475 62.61447 37787 ft 465 kts 279°
2026-04-26 19:36 23.19037 62.55637 37791 ft 465 kts 279°
2026-04-26 19:36 23.19819 62.47513 37780 ft 465 kts 279°
2026-04-26 19:37 23.20492 62.40477 37786 ft 465 kts 279°
2026-04-26 19:37 23.21155 62.33517 37788 ft 466 kts 279°
2026-04-26 19:38 23.21819 62.26515 37787 ft 466 kts 279°
2026-04-26 19:38 23.22481 62.19499 37809 ft 466 kts 279°
2026-04-26 19:39 23.23140 62.12486 37811 ft 466 kts 279°
2026-04-26 19:39 23.23795 62.05477 37792 ft 466 kts 279°
2026-04-26 19:40 23.24448 61.98461 37798 ft 466 kts 279°
2026-04-26 19:40 23.25098 61.91453 37797 ft 466 kts 279°
2026-04-26 19:41 23.25744 61.84456 37790 ft 465 kts 279°
2026-04-26 19:41 23.26276 61.78650 37804 ft 464 kts 279°
2026-04-26 19:42 23.27021 61.70491 37789 ft 463 kts 279°
2026-04-26 19:42 23.27653 61.63526 37785 ft 463 kts 279°
2026-04-26 19:43 23.28283 61.56558 37782 ft 463 kts 279°
2026-04-26 19:43 23.28905 61.49636 37789 ft 463 kts 279°
2026-04-26 19:44 23.29528 61.42665 37791 ft 463 kts 279°
2026-04-26 19:44 23.30150 61.35685 37788 ft 463 kts 279°
2026-04-26 19:45 23.30767 61.28708 37789 ft 463 kts 279°
2026-04-26 19:45 23.31384 61.21727 37796 ft 464 kts 279°
2026-04-26 19:46 23.32046 61.14757 37795 ft 463 kts 281°
2026-04-26 19:46 23.32940 61.07822 37790 ft 463 kts 281°
2026-04-26 19:47 23.33695 61.02065 37811 ft 462 kts 281°
2026-04-26 19:47 23.34723 60.93969 37812 ft 462 kts 281°
2026-04-26 19:48 23.35585 60.87055 37795 ft 461 kts 281°
2026-04-26 19:48 23.36441 60.80151 37800 ft 460 kts 281°
2026-04-26 19:49 23.37293 60.73259 37801 ft 459 kts 281°
2026-04-26 19:49 23.38241 60.66407 37786 ft 457 kts 285°
2026-04-26 19:50 23.40035 60.59806 37790 ft 453 kts 294°
2026-04-26 19:50 23.42396 60.53448 37795 ft 453 kts 294°
2026-04-26 19:51 23.44743 60.47073 37786 ft 454 kts 294°
2026-04-26 19:51 23.47078 60.40685 37807 ft 454 kts 294°
2026-04-26 19:52 23.49400 60.34317 37816 ft 454 kts 293°
2026-04-26 19:52 23.51736 60.27903 37800 ft 454 kts 293°
2026-04-26 19:53 23.54060 60.21513 37796 ft 454 kts 293°
2026-04-26 19:53 23.56377 60.15127 37810 ft 453 kts 293°
2026-04-26 19:54 23.58694 60.08736 37791 ft 453 kts 293°
2026-04-26 19:54 23.61004 60.02351 37798 ft 453 kts 293°
2026-04-26 19:55 23.63310 59.95969 37790 ft 453 kts 293°
2026-04-26 19:55 23.65601 59.89619 37785 ft 453 kts 293°
2026-04-26 19:56 23.67907 59.83227 37788 ft 453 kts 293°
2026-04-26 19:56 23.70219 59.76803 37788 ft 452 kts 292°
2026-04-26 19:57 23.72497 59.70463 37800 ft 452 kts 292°
2026-04-26 19:57 23.74789 59.64074 37796 ft 451 kts 292°
2026-04-26 19:58 23.77073 59.57696 37807 ft 451 kts 292°
2026-04-26 19:58 23.79354 59.51317 37805 ft 451 kts 292°
2026-04-26 19:59 23.81635 59.44931 37791 ft 451 kts 292°
2026-04-26 19:59 23.83911 59.38547 37793 ft 451 kts 292°
2026-04-26 20:00 23.86184 59.32167 37793 ft 451 kts 292°
2026-04-26 20:00 23.87077 59.29657 37814 ft 450 kts 292°
2026-04-26 20:01 23.88958 59.24364 37796 ft 450 kts 292°
2026-04-26 20:01 23.90213 59.20829 37796 ft 449 kts 292°
2026-04-26 20:02 23.92456 59.14506 37792 ft 449 kts 292°
2026-04-26 20:02 23.94279 59.09151 37791 ft 449 kts 290°
2026-04-26 20:03 23.96650 59.01661 37782 ft 449 kts 290°
2026-04-26 20:03 23.98695 58.95217 37790 ft 449 kts 290°
2026-04-26 20:04 24.00755 58.88776 37822 ft 448 kts 290°
2026-04-26 20:04 24.02816 58.82336 37800 ft 448 kts 290°
2026-04-26 20:05 24.04868 58.75910 37797 ft 448 kts 290°
2026-04-26 20:05 24.06917 58.69482 37791 ft 447 kts 290°
2026-04-26 20:06 24.08962 58.63052 37795 ft 447 kts 290°
2026-04-26 20:06 24.11003 58.56626 37795 ft 447 kts 290°
2026-04-26 20:07 24.13041 58.50198 37798 ft 447 kts 290°
2026-04-26 20:07 24.15075 58.43772 37794 ft 447 kts 290°
2026-04-26 20:08 24.17107 58.37346 37812 ft 446 kts 290°
2026-04-26 20:08 24.19132 58.30932 37806 ft 446 kts 290°
2026-04-26 20:09 24.21151 58.24523 37808 ft 445 kts 290°
2026-04-26 20:09 24.23167 58.18114 37809 ft 444 kts 290°
2026-04-26 20:10 24.25173 58.11723 37801 ft 444 kts 290°
2026-04-26 20:10 24.27176 58.05332 37795 ft 443 kts 290°
2026-04-26 20:11 24.27834 58.03232 37801 ft 443 kts 290°
2026-04-26 20:12 24.30816 57.93692 37800 ft 443 kts 290°
2026-04-26 20:12 24.32809 57.87306 37805 ft 443 kts 289°
2026-04-26 20:13 24.34802 57.80912 37789 ft 442 kts 289°
2026-04-26 20:13 24.35792 57.77731 37402 ft 440 kts 289°
2026-04-26 20:13 24.36786 57.74540 36456 ft 445 kts 289°
2026-04-26 20:13 24.37795 57.71301 35380 ft 452 kts 289°
2026-04-26 20:14 24.38702 57.68385 34635 ft 454 kts 289°
2026-04-26 20:14 24.39148 57.66948 34356 ft 452 kts 289°
2026-04-26 20:15 24.40152 57.63712 33884 ft 445 kts 289°
2026-04-26 20:15 24.40820 57.61553 33689 ft 438 kts 289°
2026-04-26 20:15 24.40835 57.61505 33693 ft 438 kts 289°
2026-04-26 20:15 24.41323 57.59928 33475 ft 434 kts 289°
2026-04-26 20:16 24.41382 57.59738 33461 ft 433 kts 289°
2026-04-26 20:16 24.41919 57.58005 33107 ft 432 kts 289°
2026-04-26 20:18 24.42891 57.54866 32536 ft 428 kts 289°
2026-04-26 20:18 24.43845 57.51790 31977 ft 425 kts 288°
2026-04-26 20:19 24.44524 57.49599 31592 ft 422 kts 288°
2026-04-26 20:20 24.45421 57.46703 31051 ft 419 kts 288°
2026-04-26 20:20 24.46355 57.43683 30510 ft 417 kts 288°
2026-04-26 20:20 24.47284 57.40677 29967 ft 415 kts 287°
2026-04-26 20:20 24.48209 57.37681 29365 ft 413 kts 287°
2026-04-26 20:21 24.49125 57.34711 28820 ft 408 kts 287°
2026-04-26 20:21 24.50028 57.31775 28264 ft 404 kts 287°
2026-04-26 20:21 24.50924 57.28862 27737 ft 401 kts 287°
2026-04-26 20:21 24.51810 57.25978 27210 ft 397 kts 287°
2026-04-26 20:22 24.52026 57.25274 27093 ft 396 kts 287°
2026-04-26 20:22 24.52742 57.22944 26669 ft 394 kts 287°
2026-04-26 20:22 24.53613 57.20102 26143 ft 391 kts 286°
2026-04-26 20:22 24.54478 57.17282 25637 ft 388 kts 286°
2026-04-26 20:23 24.55335 57.14481 25113 ft 386 kts 286°
2026-04-26 20:23 24.56185 57.11705 24603 ft 383 kts 286°
2026-04-26 20:24 24.56673 57.10108 24311 ft 382 kts 286°
2026-04-26 20:24 24.57514 57.07356 23808 ft 380 kts 286°
2026-04-26 20:24 24.58352 57.04612 23281 ft 378 kts 286°
2026-04-26 20:24 24.59183 57.01887 22747 ft 374 kts 286°
2026-04-26 20:25 24.60006 56.99188 22249 ft 370 kts 286°
2026-04-26 20:25 24.60557 56.97379 21916 ft 368 kts 286°
2026-04-26 20:25 24.61623 56.93874 21274 ft 364 kts 286°
2026-04-26 20:25 24.62421 56.91247 20779 ft 361 kts 286°
2026-04-26 20:26 24.63213 56.88639 20299 ft 359 kts 286°
2026-04-26 20:26 24.64004 56.86052 19812 ft 356 kts 287°
2026-04-26 20:26 24.64969 56.83541 19338 ft 357 kts 294°
2026-04-26 20:26 24.66188 56.81167 18859 ft 357 kts 298°
2026-04-26 20:27 24.67479 56.78839 18383 ft 356 kts 298°
2026-04-26 20:27 24.68765 56.76521 17864 ft 355 kts 298°
2026-04-26 20:27 24.70046 56.74209 17394 ft 353 kts 298°
2026-04-26 20:27 24.71316 56.71913 16931 ft 350 kts 298°
2026-04-26 20:28 24.72573 56.69634 16455 ft 347 kts 299°
2026-04-26 20:28 24.73820 56.67371 15999 ft 344 kts 299°
2026-04-26 20:28 24.75055 56.65127 15544 ft 342 kts 299°
2026-04-26 20:28 24.76188 56.63068 15114 ft 340 kts 299°
2026-04-26 20:29 24.77177 56.61267 14766 ft 338 kts 299°
2026-04-26 20:29 24.77718 56.60283 14571 ft 337 kts 299°
2026-04-26 20:30 24.78348 56.59136 14336 ft 335 kts 299°
2026-04-26 20:30 24.79555 56.56938 14004 ft 339 kts 300°
2026-04-26 20:30 24.80800 56.54664 13606 ft 353 kts 300°
2026-04-26 20:30 24.82083 56.52327 13083 ft 359 kts 300°
2026-04-26 20:31 24.83369 56.49988 12646 ft 355 kts 300°
2026-04-26 20:31 24.84635 56.47681 12181 ft 349 kts 300°
2026-04-26 20:31 24.85878 56.45419 11738 ft 342 kts 300°
2026-04-26 20:31 24.87098 56.43195 11299 ft 336 kts 299°
2026-04-26 20:32 24.88054 56.40874 10886 ft 331 kts 286°
2026-04-26 20:32 24.88434 56.38407 10467 ft 325 kts 271°
2026-04-26 20:32 24.88314 56.35969 10294 ft 312 kts 266°
2026-04-26 20:32 24.88153 56.33643 10195 ft 297 kts 266°
2026-04-26 20:33 24.88016 56.31421 10062 ft 286 kts 266°
2026-04-26 20:33 24.87894 56.29254 9872 ft 282 kts 267°
2026-04-26 20:33 24.87792 56.27107 9739 ft 281 kts 271°
2026-04-26 20:33 24.88095 56.24985 9483 ft 282 kts 288°
2026-04-26 20:34 24.88930 56.23050 9255 ft 278 kts 301°
2026-04-26 20:34 24.89920 56.21284 8992 ft 272 kts 300°
2026-04-26 20:34 24.90879 56.19517 8729 ft 266 kts 300°
2026-04-26 20:34 24.91802 56.17767 8464 ft 261 kts 299°
2026-04-26 20:35 24.92689 56.16051 8228 ft 256 kts 299°
2026-04-26 20:35 24.93556 56.14362 7981 ft 250 kts 299°
2026-04-26 20:35 24.94404 56.12707 7724 ft 246 kts 299°
2026-04-26 20:35 24.95240 56.11071 7483 ft 245 kts 299°
2026-04-26 20:36 24.96075 56.09438 7254 ft 243 kts 299°
2026-04-26 20:36 24.96898 56.07831 7022 ft 241 kts 300°
2026-04-26 20:36 24.97620 56.06165 6778 ft 241 kts 291°
2026-04-26 20:36 24.98128 56.04408 6539 ft 241 kts 288°
2026-04-26 20:37 24.98626 56.02650 6297 ft 239 kts 288°
2026-04-26 20:37 24.99135 56.00897 6043 ft 240 kts 289°
2026-04-26 20:37 24.99646 55.99159 5812 ft 237 kts 289°
2026-04-26 20:37 25.00157 55.97436 5561 ft 236 kts 289°
2026-04-26 20:38 25.00664 55.95727 5328 ft 233 kts 289°
2026-04-26 20:38 25.01169 55.94032 5086 ft 233 kts 289°
2026-04-26 20:38 25.01674 55.92340 4835 ft 232 kts 289°
2026-04-26 20:38 25.02177 55.90654 4601 ft 231 kts 289°
2026-04-26 20:39 25.02681 55.88960 4348 ft 232 kts 289°
2026-04-26 20:39 25.03014 55.87841 4187 ft 231 kts 289°
2026-04-26 20:39 25.03683 55.85594 3856 ft 230 kts 289°
2026-04-26 20:39 25.04178 55.83925 3639 ft 227 kts 289°
2026-04-26 20:40 25.04667 55.82280 3393 ft 225 kts 289°
2026-04-26 20:40 25.05160 55.80621 3143 ft 230 kts 289°
2026-04-26 20:40 25.05668 55.78910 3037 ft 239 kts 289°
2026-04-26 20:40 25.06193 55.77134 3014 ft 248 kts 289°
2026-04-26 20:41 25.06732 55.75316 3015 ft 250 kts 289°
2026-04-26 20:41 25.07273 55.73493 3016 ft 249 kts 289°
2026-04-26 20:41 25.07809 55.71685 3014 ft 244 kts 289°
2026-04-26 20:41 25.08317 55.69963 3013 ft 230 kts 289°
2026-04-26 20:42 25.08793 55.68354 3012 ft 217 kts 288°
2026-04-26 20:42 25.09253 55.66802 3008 ft 203 kts 288°
2026-04-26 20:42 25.09667 55.65364 3008 ft 196 kts 287°
2026-04-26 20:42 25.10126 55.63951 3009 ft 195 kts 294°
2026-04-26 20:43 25.10730 55.62614 3010 ft 195 kts 299°
2026-04-26 20:43 25.11428 55.61327 3010 ft 195 kts 302°
2026-04-26 20:43 25.12138 55.60062 3001 ft 193 kts 301°
2026-04-26 20:43 25.12837 55.58803 3002 ft 193 kts 301°
2026-04-26 20:44 25.13543 55.57537 2999 ft 194 kts 301°
2026-04-26 20:44 25.14252 55.56265 2999 ft 195 kts 300°
2026-04-26 20:44 25.14960 55.54993 3002 ft 194 kts 301°
2026-04-26 20:44 25.15662 55.53733 2945 ft 190 kts 301°
2026-04-26 20:45 25.16342 55.52512 2688 ft 180 kts 301°
2026-04-26 20:45 25.16980 55.51361 2429 ft 173 kts 301°
2026-04-26 20:45 25.17593 55.50258 2238 ft 163 kts 301°
2026-04-26 20:45 25.18176 55.49207 2025 ft 159 kts 301°
2026-04-26 20:46 25.18714 55.48228 1820 ft 140 kts 301°
2026-04-26 20:46 25.19206 55.47332 1632 ft 133 kts 301°
2026-04-26 20:46 25.19692 55.46461 1453 ft 135 kts 301°
2026-04-26 20:46 25.20179 55.45581 1294 ft 134 kts 302°
2026-04-26 20:47 25.20665 55.44701 1119 ft 135 kts 301°
2026-04-26 20:47 25.20992 55.44114 1012 ft 138 kts 302°
2026-04-26 20:47 25.21686 55.42908 781 ft 140 kts 301°
2026-04-26 20:47 25.22210 55.41980 600 ft 143 kts 301°
2026-04-26 20:48 25.22722 55.41060 401 ft 140 kts 300°
2026-04-26 20:48 25.23230 55.40125 223 ft 143 kts 299°
2026-04-26 20:48 25.23752 55.39194 40 ft 137 kts 300°
2026-04-26 20:48 25.24176 55.38422 27 ft 97 kts 301°
2026-04-26 20:49 25.24475 55.37887 27 ft 69 kts 301°
2026-04-26 20:49 25.24687 55.37500 27 ft 50 kts 301°
2026-04-26 20:49 25.24763 55.37337 27 ft 19 kts 287°
2026-04-26 20:49 25.24783 55.37194 27 ft 19 kts 271°
2026-04-26 20:50 25.24786 55.37048 27 ft 19 kts 271°
2026-04-26 20:50 25.24820 55.36905 27 ft 20 kts 296°
2026-04-26 20:50 25.24869 55.36758 27 ft 21 kts 283°
2026-04-26 20:50 25.24909 55.36609 27 ft 16 kts 249°
2026-04-26 20:51 25.24825 55.36539 27 ft 15 kts 213°
2026-04-26 20:51 25.24781 55.36508 27 ft 2 kts 212°
2026-04-26 20:51 25.24770 55.36500 27 ft 0 kts 212°